map of DJE home
Great Circle Mapper logo
DJE - Airport
Location
City:  Djerba, Tunisia
Near (Alt.):Jerba
Name:Zarzis International Airport
ICAO / IATA:DTTJ / DJE

Details
Type:Airport (Aerodrome, Airfield)
Use:Public/Civil, International (customs port of entry)
Latitude:3352'32"N (33.875556)
Longitude:1046'38"E (10.777222)
Elevation:19 ft (6 m)
Variation:2.1E (WMM2015 magnetic declination)
Runways:1
Longest:10171 × 148 ft (3100 × 45 m), paved

Time
Time Zone:UTC+1 (DST+2)

Weather
METAR:DTTJ 210600Z 07003KT 8000 FEW016 14/11 Q1027 NOSIG
TAF:DTTJ 210505Z 2106/2206 32008KT 8000 FEW016
BECMG 2110/2112 36010KT CAVOK

Related Locations
Nearby:
Farthest:GIS: 11655 mi / 18756 km
Gisborne, NZ

Find:

   beyond  
but within

Other Information
Maps:
NOTAMs:
Links:
Sources:

  
flag of Tunisia   

Sectional Chart

Flight Planning
at skyvector.com

Satellite Image

Google Maps Satellite View

 

Copyright © 2004-2014 Karl L. Swartz. All rights reserved.
The Great Circle Mapper name and logo are trademarks of the Great Circle Mapper.
All other trademarks mentioned herein belong to their respective owners.
Please see credits for attibutions and further copyright information.

  Follow gcmap on Facebook Follow gcmap on Twitter

hCard Microformat

Geo Microformat